[[{"header":{"parameterUnit":"m.s-1","parameterCategory":1,"la1":30.2991,"la2":30.254,"lo1":-89.0895,"lo2":-89.0444,"dy":0.0017,"dx":0.0017,"nx":28,"ny":28,"refTime":"2024-06-30T03:00:00:Z","depth":0,"parameterNumber":2,"parameterNumberName":"U-component_of_WINDS"},"data":[0,0,0,0,0,0,0,0,0,0,0,0,0,0,0,0,0,0,0,0,0,0,0,0,0,0,0,0,0,0,0,0,0,0,0,0,0,0,0,0,0,0,0,0,0,0,0,0,0,0,0,0,0,0,0,0,0,0,-0.507,-0.5069,0,-0.4987,-0.4987,-0.4986,-0.494,-0.4939,-0.4939,-0.4939,-0.4854,-0.4852,-0.485,0,0,0,0,0,0,0,0,0,0,0,0,0,-0.519,-0.5188,-0.507,-0.5069,-0.5068,-0.4988,-0.4986,-0.4985,-0.494,-0.4939,-0.4939,-0.4939,-0.4855,-0.4852,-0.485,0,0,0,0,0,0,0,0,0,0,0,0,0,-0.5125,-0.5187,-0.5071,-0.5036,-0.5032,-0.4988,-0.4986,-0.4985,-0.494,-0.4939,-0.4939,-0.4939,-0.4856,-0.4852,-0.4849,-0.4833,0,0,-0.4839,-0.4838,0,0,0,0,0,0,0,0,-0.5129,-0.5121,-0.5042,-0.5038,-0.5034,-0.4974,-0.4997,-0.4934,-0.494,-0.4975,-0.4939,-0.4939,-0.4894,-0.4888,-0.4872,-0.4829,-0.4826,-0.4839,-0.4837,-0.4836,-0.4835,0,0,0,0,0,0,0,-0.5134,-0.5124,-0.5038,-0.5041,-0.5036,-0.5024,-0.5015,-0.4985,-0.4936,-0.4972,-0.4968,-0.4959,-0.4892,-0.4876,-0.487,-0.4824,-0.4839,-0.4836,-0.4834,-0.4833,-0.4765,-0.4765,0,0,0,0,0,0,-0.5144,-0.5128,-0.504,-0.5035,-0.5082,-0.5023,-0.5012,-0.4993,-0.4937,-0.4928,-0.4959,-0.4957,-0.4881,-0.4874,-0.4867,-0.4845,-0.4836,-0.4833,-0.4831,-0.4764,-0.4765,-0.4765,0,0,0,0,0,0,-0.5146,-0.5136,-0.5044,-0.5081,-0.5068,-0.5021,-0.5,-0.4992,-0.4976,-0.4927,-0.4918,-0.4952,-0.4881,-0.4871,-0.4842,-0.4841,-0.4831,-0.4828,-0.4764,-0.4764,-0.4765,-0.48,0,0,0,0,0,0,-0.515,-0.5137,-0.5131,-0.5081,-0.5066,-0.502,-0.5,-0.499,-0.497,-0.4967,-0.4918,-0.491,-0.488,-0.4847,-0.4839,-0.4837,-0.4826,-0.4764,-0.4764,-0.4765,-0.4799,-0.4802,-0.4804,0,0,0,0,0,-0.5154,-0.5144,-0.5131,-0.512,-0.5057,-0.502,-0.5012,-0.4978,-0.497,-0.4963,-0.4932,-0.4911,-0.4843,-0.4845,-0.4835,-0.4832,-0.4764,-0.4764,-0.4765,-0.4798,-0.4801,-0.4804,0,0,0,0,0,0,-0.5195,-0.5137,-0.5121,-0.5095,-0.5063,-0.5013,-0.5003,-0.4982,-0.4952,-0.495,-0.4909,-0.4899,-0.4873,-0.4849,-0.4853,-0.4813,-0.4801,-0.48,-0.483,-0.4833,-0.4835,-0.4841,-0.4823,0,0,0,0,0,-0.5201,-0.5176,-0.5126,-0.5107,-0.5092,-0.5051,-0.5033,-0.501,-0.4975,-0.4961,-0.4928,-0.4895,-0.4866,-0.4848,-0.4819,-0.4796,-0.4784,-0.4789,-0.4791,-0.4793,-0.4792,-0.4779,-0.478,-0.4766,-0.4766,-0.4766,0,0,-0.5212,-0.5178,-0.5164,-0.5115,-0.5087,-0.5062,-0.5039,-0.5014,-0.4995,-0.4957,-0.4928,-0.4903,-0.4863,-0.4837,-0.4824,-0.4816,-0.4794,-0.4794,-0.4796,-0.4793,-0.4779,-0.478,-0.4782,-0.4766,-0.4766,-0.4766,0,0,-0.5221,-0.5192,-0.5173,-0.5147,-0.5105,-0.5078,-0.5073,-0.5026,-0.5008,-0.4978,-0.4949,-0.4926,-0.4877,-0.4851,-0.4831,-0.483,-0.481,-0.4822,-0.4835,-0.4822,-0.4823,-0.4824,-0.4824,-0.4824,-0.4821,-0.4821,-0.4821,0,-0.5241,-0.5202,-0.5166,-0.5143,-0.5122,-0.5087,-0.5068,-0.5044,-0.4995,-0.4982,-0.4974,-0.4912,-0.4883,-0.485,-0.4851,-0.4835,-0.4829,-0.4827,-0.4826,-0.4826,-0.4826,-0.4826,-0.4826,-0.4823,-0.4823,-0.4822,-0.4822,0,-0.5229,-0.5202,-0.5192,-0.5146,-0.5124,-0.5103,-0.5065,-0.5047,-0.5026,-0.4999,-0.4969,-0.4933,-0.4896,-0.4887,-0.4865,-0.4851,-0.4848,-0.4833,-0.482,-0.483,-0.4829,-0.4828,-0.4825,-0.4825,-0.4824,-0.4824,0,0,-0.526,-0.5195,-0.5192,-0.5171,-0.5124,-0.5103,-0.508,-0.5044,-0.503,-0.4998,-0.4978,-0.4937,-0.4924,-0.4902,-0.4877,-0.4866,-0.4868,-0.4853,-0.4852,-0.4857,-0.485,-0.4861,-0.4862,-0.4855,-0.4854,-0.4854,-0.4854,0,-0.5262,-0.522,-0.5187,-0.5157,-0.5133,-0.51,-0.508,-0.5049,-0.5023,-0.4999,-0.4971,-0.4943,-0.4928,-0.4914,-0.4901,-0.4871,-0.4866,-0.487,-0.4836,-0.4835,-0.4847,-0.4861,-0.4872,-0.4874,-0.4853,-0.4853,-0.4853,0,-0.5258,-0.5228,-0.5196,-0.5151,-0.514,-0.5122,-0.5087,-0.5064,-0.5028,-0.5011,-0.4986,-0.4961,-0.4936,-0.4925,-0.489,-0.4894,-0.4878,-0.4861,-0.486,-0.4855,-0.4844,-0.4857,-0.4873,-0.4874,-0.4852,-0.4852,-0.4852,0,-0.5285,-0.5236,-0.521,-0.5193,-0.514,-0.5129,-0.5107,-0.5071,-0.5051,-0.5021,-0.5008,-0.4974,-0.4956,-0.4931,-0.4898,-0.4893,-0.4866,-0.4853,-0.4851,-0.4852,-0.4847,-0.4847,-0.4861,-0.4836,-0.4836,-0.4836,-0.4836,0,-0.5291,-0.5272,-0.5221,-0.5206,-0.5184,-0.5147,-0.5127,-0.5102,-0.507,-0.5049,-0.5018,-0.4999,-0.4957,-0.4932,-0.4906,-0.4881,-0.4873,-0.4858,-0.4851,-0.4861,-0.4863,-0.485,-0.4849,-0.4836,-0.4836,-0.4836,-0.4836,0,-0.5317,-0.5282,-0.5252,-0.5205,-0.5192,-0.5179,-0.5138,-0.5122,-0.5095,-0.5069,-0.506,-0.5018,-0.4988,-0.4952,-0.4911,-0.4893,-0.487,-0.486,-0.4883,-0.4879,-0.4879,-0.488,-0.4884,-0.4883,-0.486,-0.486,-0.4861,0,-0.5323,-0.5308,-0.5259,-0.5243,-0.5221,-0.5195,-0.5176,-0.5139,-0.5119,-0.5078,-0.5067,-0.5034,-0.5006,-0.496,-0.4925,-0.4893,-0.4882,-0.4886,-0.4877,-0.4888,-0.4883,-0.4884,-0.4883,-0.4889,-0.4889,-0.489,-0.489,0,-0.5337,-0.5321,-0.5293,-0.526,-0.5238,-0.5209,-0.518,-0.5169,-0.5126,-0.5106,-0.5075,-0.5053,-0.5011,-0.4979,-0.4943,-0.492,-0.4898,-0.4893,-0.4891,-0.49,-0.4914,-0.4907,-0.4889,-0.4893,-0.4893,-0.4892,-0.4892,-0.4892,-0.5354,-0.5339,-0.5303,-0.5273,-0.5247,-0.5221,-0.5203,-0.5174,-0.5148,-0.511,-0.509,-0.506,-0.5025,-0.4974,-0.4951,-0.4927,-0.4919,-0.4916,-0.4915,-0.4915,-0.4918,-0.4918,-0.492,-0.492,-0.492,-0.492,-0.492,0,-0.5367,-0.5342,-0.5315,-0.5275,-0.5252,-0.5234,-0.52,-0.5182,-0.5156,-0.5125,-0.5098,-0.5063,-0.5032,-0.4996,-0.4963,-0.495,-0.4939,-0.4943,-0.4943,-0.4938,-0.4927,-0.4932,-0.4952,-0.4952,-0.4952,-0.4952,-0.4952,-0.4952,-0.5371,-0.5346,-0.5325,-0.5286,-0.5261,-0.5231,-0.5214,-0.5189,-0.5164,-0.5126,-0.5101,-0.5077,-0.5044,-0.5008,-0.4979,-0.4969,-0.4959,-0.4965,-0.4952,-0.4942,-0.4939,-0.4937,-0.4941,-0.4963,-0.4963,-0.4966,-0.4966,-0.4966]},{"header":{"parameterUnit":"m.s-1","parameterCategory":1,"la1":30.2991,"la2":30.254,"lo1":-89.0895,"lo2":-89.0444,"dy":0.0017,"dx":0.0017,"nx":28,"ny":28,"refTime":"2024-06-30T03:00:00:Z","depth":0,"parameterNumber":3,"parameterNumberName":"V-component_of_WINDS"},"data":[0,0,0,0,0,0,0,0,0,0,0,0,0,0,0,0,0,0,0,0,0,0,0,0,0,0,0,0,0,0,0,0,0,0,0,0,0,0,0,0,0,0,0,0,0,0,0,0,0,0,0,0,0,0,0,0,0,0,4.5066,4.5065,0,4.5002,4.5002,4.5001,4.4931,4.493,4.4929,4.4928,4.4859,4.4859,4.4858,0,0,0,0,0,0,0,0,0,0,0,0,0,4.5124,4.5123,4.5066,4.5065,4.5064,4.5003,4.5002,4.5001,4.4931,4.493,4.4929,4.4927,4.486,4.4859,4.4858,0,0,0,0,0,0,0,0,0,0,0,0,0,4.5083,4.5123,4.5066,4.5022,4.5017,4.5003,4.5002,4.5001,4.4931,4.493,4.4928,4.4927,4.486,4.4859,4.4858,4.488,0,0,4.4854,4.4853,0,0,0,0,0,0,0,0,4.5086,4.5081,4.5029,4.5025,4.502,4.4973,4.4997,4.496,4.4932,4.4964,4.4928,4.4926,4.4898,4.4894,4.4885,4.4877,4.4874,4.4853,4.4853,4.4852,4.4852,0,0,0,0,0,0,0,4.5089,4.5083,4.5041,4.5029,4.5023,4.5005,4.4997,4.499,4.494,4.4961,4.4956,4.4949,4.4895,4.4887,4.4883,4.4873,4.4853,4.4852,4.4852,4.4851,4.488,4.4882,0,0,0,0,0,0,4.5098,4.5086,4.5043,4.5039,4.505,4.5005,4.4997,4.499,4.494,4.4931,4.4951,4.4946,4.489,4.4885,4.488,4.4903,4.4852,4.4851,4.485,4.4879,4.4881,4.4882,0,0,0,0,0,0,4.51,4.5095,4.5045,4.5061,4.5053,4.5006,4.4998,4.4989,4.498,4.4933,4.4923,4.4951,4.4888,4.4882,4.4881,4.49,4.485,4.4849,4.4877,4.4879,4.4881,4.495,0,0,0,0,0,0,4.5102,4.5096,4.5104,4.5062,4.5053,4.5048,4.4999,4.4989,4.4979,4.4972,4.493,4.4922,4.4886,4.4883,4.488,4.4897,4.4848,4.4875,4.4878,4.4881,4.4945,4.4954,4.4961,0,0,0,0,0,4.5104,4.5125,4.5105,4.51,4.5062,4.5049,4.5044,4.5004,4.498,4.4988,4.4958,4.4923,4.4899,4.4884,4.4879,4.4897,4.4873,4.4877,4.488,4.4942,4.4952,4.4961,0,0,0,0,0,0,4.517,4.5119,4.5096,4.5104,4.5082,4.5037,4.5045,4.5016,4.4998,4.4993,4.4943,4.4934,4.4939,4.4918,4.4902,4.4916,4.4881,4.4884,4.493,4.4939,4.4947,4.4951,4.4847,0,0,0,0,0,4.5186,4.518,4.5135,4.5147,4.5137,4.5094,4.5086,4.5058,4.5032,4.5021,4.4991,4.4966,4.4953,4.4945,4.493,4.4943,4.4932,4.4952,4.496,4.4967,4.497,4.4975,4.4983,4.4894,4.4894,4.4894,0,0,4.5217,4.5189,4.5188,4.5159,4.5138,4.5133,4.5086,4.5081,4.5076,4.502,4.5017,4.4995,4.4964,4.497,4.4971,4.4952,4.4993,4.4972,4.4978,4.4976,4.4979,4.4988,4.4996,4.4896,4.4896,4.4895,0,0,4.5272,4.525,4.5257,4.5238,4.5208,4.5179,4.5182,4.5142,4.5125,4.5122,4.508,4.5073,4.5051,4.5031,4.5018,4.5068,4.5035,4.5065,4.5105,4.5111,4.5118,4.5124,4.5142,4.5149,4.5068,4.5068,4.5068,0,4.5314,4.5305,4.5265,4.5264,4.5252,4.5203,4.521,4.5193,4.5159,4.5152,4.5132,4.5105,4.508,4.5081,4.5094,4.5085,4.5085,4.5068,4.5121,4.5126,4.5131,4.5147,4.5154,4.5071,4.5071,4.5071,4.507,0,4.5359,4.5354,4.5363,4.5333,4.5323,4.5326,4.5285,4.528,4.5253,4.5227,4.5225,4.5194,4.5173,4.5171,4.5144,4.5168,4.5158,4.513,4.5094,4.5144,4.5159,4.5164,4.5077,4.5075,4.5074,4.5073,0,0,4.5451,4.5401,4.5405,4.5391,4.5355,4.5349,4.5351,4.5331,4.5327,4.5306,4.5305,4.5289,4.5264,4.525,4.522,4.5225,4.5267,4.5197,4.5195,4.521,4.5292,4.5312,4.532,4.5246,4.5247,4.5248,4.5294,0,4.5499,4.5498,4.5463,4.5472,4.5466,4.542,4.5421,4.5399,4.5375,4.5366,4.5339,4.5328,4.5296,4.5287,4.529,4.5261,4.5282,4.5257,4.5243,4.5243,4.5251,4.5327,4.5348,4.5393,4.5299,4.53,4.5301,0,4.5553,4.5538,4.5547,4.5512,4.5508,4.5509,4.5489,4.5482,4.5456,4.5438,4.5423,4.539,4.5388,4.5356,4.5352,4.5336,4.5328,4.5313,4.5314,4.531,4.5274,4.5324,4.5407,4.5413,4.5309,4.5309,4.5308,0,4.5619,4.56,4.5603,4.5593,4.5552,4.5554,4.5537,4.551,4.5501,4.5483,4.5477,4.5459,4.5449,4.5436,4.5399,4.5378,4.5399,4.5363,4.5383,4.5385,4.5388,4.5388,4.547,4.5386,4.5386,4.5385,4.5385,0,4.5675,4.5682,4.5632,4.5634,4.5641,4.56,4.5608,4.5586,4.5563,4.5559,4.5518,4.5516,4.5468,4.546,4.5431,4.5432,4.5428,4.5413,4.5405,4.5416,4.5418,4.5409,4.5405,4.5387,4.5387,4.5386,4.5386,0,4.5749,4.5715,4.5716,4.5678,4.5669,4.5676,4.5643,4.5643,4.5617,4.5613,4.561,4.5569,4.5558,4.5521,4.5499,4.548,4.549,4.5475,4.5499,4.5493,4.5516,4.5514,4.5593,4.5602,4.5513,4.5514,4.5515,0,4.5786,4.5791,4.5755,4.575,4.5735,4.5728,4.5719,4.568,4.5672,4.5645,4.5648,4.5634,4.562,4.5604,4.5571,4.5555,4.5539,4.5569,4.5536,4.5548,4.5539,4.5539,4.5539,4.5575,4.5576,4.5577,4.5578,0,4.5856,4.584,4.5829,4.5814,4.5805,4.579,4.5773,4.5771,4.5727,4.5721,4.571,4.5699,4.5679,4.5665,4.5644,4.5625,4.5594,4.5589,4.5592,4.5603,4.5616,4.5609,4.5517,4.5587,4.5586,4.5585,4.5585,4.5584,4.5912,4.5914,4.589,4.588,4.5863,4.5849,4.5847,4.5822,4.5813,4.5794,4.5771,4.5763,4.5737,4.5706,4.569,4.5683,4.5666,4.5671,4.5672,4.5674,4.5679,4.5619,4.5679,4.5678,4.5678,4.5678,4.5678,0,4.5979,4.5962,4.5953,4.5931,4.5924,4.5897,4.5878,4.5873,4.5866,4.5846,4.5834,4.5822,4.5808,4.5777,4.576,4.576,4.5746,4.5757,4.5756,4.5753,4.5695,4.5694,4.5769,4.5769,4.5769,4.5769,4.5769,4.5769,4.6013,4.6016,4.5997,4.5992,4.5974,4.5966,4.5957,4.5944,4.5928,4.5916,4.5905,4.5885,4.5861,4.5843,4.5829,4.582,4.5816,4.5832,4.5818,4.5765,4.5756,4.5748,4.5746,4.5832,4.5832,4.5876,4.5876,4.5876]}]]